Location: Newark
(47.1042°N, 8.6744°E)
Time: 14:51:25
(UTC+00:00)

N. Korean satellite - Pass Details

Date: 15 October 2019
Orbit: 456 x 506 km, 97.2° (Epoch: 21 November)

Event Time Altitude Azimuth Distance (km) Brightness Sun altitude
Rises 17:32:15 0° 209° (SSW) 2,465 10.6 -9.9°
Reaches altitude 10° 17:35:05 10° 236° (SW) 1,598 10.1 -10.4°
Maximum altitude 17:36:57 14° 269° (W) 1,378 10.3 -10.7°
Drops below altitude 10° 17:38:49 10° 302° (WNW) 1,608 10.1 -11.0°
Sets 17:41:41 0° 329° (NNW) 2,494 10.6 -11.5°
